Regional Weather Roundup
Issued by NWS

Home | Current Version | Previous Version | Text Only | Print | Product List | Glossary Off
Versions: 1 2 3 4 5 6 7 8 9 10 11 12 13 14 15 16 17 18 19 20 21 22 23 24 25 26 27 28 29 30 31 32 33 34 35 36 37 38 39 40 41 42 43 44 45 46 47 48 49 50

000
ASUS45 KABQ 292310
RWRNM
WEATHER ROUNDUP FOR NEW MEXICO
NATIONAL WEATHER SERVICE ALBUQUERQUE NM
500 PM MDT MON SEP 29 2014

NOTE: "FAIR" MEANS FEW OR NO CLOUDS BELOW 12,000 FEET AGL WITH NO
       SIGNIFICANT WEATHER OR OBSTRUCTIONS TO VISION.

      THIS PRODUCT IS RELEASED AS TWO VERSIONS.  ONE VERSION NEAR
      THE TOP OF THE HOUR CONTAINING PRELIMINARY DATA FROM ALBUQUERQUE
      AND OTHER STATIONS.  A FINAL VERSION WITH ADDITIONAL DATA IS
      ISSUED ABOUT 10 MINUTES AFTER THE HOUR.

NMZ501-503-504-510>518-300000-
NORTHWEST PLATEAU/NORTHCENTRAL MOUNTAINS

CITY           SKY/WX    TMP DP  RH WIND       PRES   REMARKS
FARMINGTON     SUNNY     63  38  39 NW21G28   30.00R
LOS ALAMOS     MOSUNNY   62  35  36 SW18G31   30.06R
SANTA FE       PTSUNNY   67  41  38 VRB7      30.01S
TAOS           CLOUDY    50  41  71 E7        30.09F
ANGEL FIRE     LGT RAIN  45  39  81 W17G26    30.15R

$$
NMZ402-403-502-505>509-300000-
WESTCENTRAL MOUNTAINS/SOUTHWEST MOUNTAINS

CITY           SKY/WX    TMP DP  RH WIND       PRES   REMARKS
GALLUP         SUNNY     63  35  35 SW17      30.07S
GRANTS         SUNNY     70  21  16 W17G25    30.06S
SILVER CITY    SUNNY     77  50  38 W13G21    30.03F

$$
NMZ407-409-411-412-300000-
SOUTHERN DESERTS

CITY           SKY/WX    TMP DP  RH WIND       PRES   REMARKS
LORDSBURG      FAIR      82  52  34 MISG      29.93F
DEMING         PTSUNNY   81  57  43 W12       29.92F
LAS CRUCES     MOSUNNY   84  50  30 SW9G18    29.94F
HOLLOMAN AFB   SUNNY     85  53  33 S20       29.89F
ALAMOGORDO     MOSUNNY   84  54  34 S21       29.92S
T OR C         PTSUNNY   80  52  37 SW17      29.94S

$$
NMZ519>523-300000-
CENTRAL VALLEYS/CENTRAL HIGHLANDS

CITY           SKY/WX    TMP DP  RH WIND       PRES   REMARKS
ALBUQUERQUE    MOSUNNY   76  41  28 W18G28    29.94S
DOUBLE EAGLE   MOSUNNY   73  43  33 W23G29    29.98S
MORIARTY ARPT  FAIR      74  45  35 SW16G29   29.99S
CLINES CORNERS MOSUNNY   66  53  63 SW28G36   30.02F
BELEN          FAIR      82  34  18 SW18G35   29.93S
SOCORRO        FAIR      81  42  24 SW17G31   29.91S

$$
NMZ524>526-539-540-300000-
SOUTHCENTRAL MOUNTAINS

CITY           SKY/WX    TMP DP  RH WIND       PRES   REMARKS
RUIDOSO        NOT AVBL

$$
NMZ527>531-300000-
NORTHEAST HIGHLANDS/NORTHEAST PLAINS

CITY           SKY/WX    TMP DP  RH WIND       PRES   REMARKS
LAS VEGAS      PTSUNNY   60  47  61 S24G37    29.99F
RATON          CLOUDY    58  44  60 W32G47    29.92R THUNDER
CLAYTON        PTSUNNY   72  53  51 S23G33    29.91S

$$
NMZ532>537-300000-
EASTCENTRAL PLAINS

CITY           SKY/WX    TMP DP  RH WIND       PRES   REMARKS
TUCUMCARI      MOSUNNY   80  51  36 S25G36    29.86F
CANNON AFB     MOSUNNY   78  56  46 S24G31    29.94F
CLOVIS AIRPORT   N/A     75  55  50 S23       29.97F

$$
NMZ028-029-538-300000-
SOUTHEAST PLAINS

CITY           SKY/WX    TMP DP  RH WIND       PRES   REMARKS
ROSWELL        MOSUNNY   81  59  47 SE25G35   29.90F
CARLSBAD       SUNNY     81  59  47 S16G24    29.91F
HOBBS          SUNNY     77  57  50 SE15      29.98F


$$


USA.gov is the U.S. government's official web portal to all federal, state and local government web resources and services.